Zurück zum Katalog

CZ-6A DEB

AktivPO
NORAD 54393·DEBRIS·🇨🇳 China

Gestartet Nov 11, 2022 von Taiyuan Satellite Launch Center

Loading…

Nächste Überflüge (nächste 24 Stunden)

TLE

AktuellSource: Space-Track

Epoche: Sep 14, 2026, 06:57 UTC

1 54393U 22151DR  26257.28980521  .00000261  00000-0  29244-3 0  9995
2 54393  98.4967 100.7644 0315308  33.9312 328.1569 13.58717938190097

Verfolge CZ-6A DEB in Echtzeit mit AllMySat

Download on the App Store